Location: Leuk
(46.3174°N, 7.6341°E)
Time: 13:00:10
(UTC+00:00)

MOS 1 Rocket - Pass Details

Date: 24 June 2021
Orbit: 615 x 829 km, 97.4° (Epoch: 26 July)

Event Time Altitude Azimuth Distance (km) Brightness Sun altitude
Rises 02:09:46 0° 108° (ESE) 2,894 6.8 -11.7°
Reaches altitude 10° 02:13:39 10° 71° (ENE) 2,020 6.6 -11.3°
Maximum altitude 02:14:44 11° 57° (ENE) 1,975 6.9 -11.1°
Drops below altitude 10° 02:15:51 10° 42° (NE) 2,043 7.3 -11.0°
Sets 02:19:52 0° 7° (N) 3,008 7.7 -10.6°
